Welcome to the New NWS' Forecast!
Most changes are behind the scenes, but click here for differences you might notice.

Regional Weather Roundup (RWR)

Issued by Gray - Portland, ME (GYX)

                            
000
ASUS41 KGYX 170905
RWRGYX
WEATHER ROUNDUP FOR MAINE AND NEW HAMPSHIRE
NATIONAL WEATHER SERVICE GRAY ME
500 AM EDT WED OCT 17 2018

MEZ002-005-006-010-012-015-018-020-021-024-026-027-029-171000-
MAINE
  
CITY           SKY/WX    TMP DP  RH WIND       PRES   REMARKS
PORTLAND       FAIR      41  34  76 SW7       29.91F                  
SANFORD        FAIR      31  30  96 CALM      29.91F                  
BAR HARBOR     FAIR      41  37  86 CALM      29.90F                  
WISCASSET      FAIR      38  38 100 CALM      29.91F                  
ROCKLAND       MOCLDY    41  37  86 CALM      29.90F                  
FRYEBURG       CLOUDY    35  33  92 NW3       29.88F                  
LEWISTONAUBURN CLOUDY    36  34  92 CALM      29.89S                  
AUGUSTA        CLOUDY    39  35  86 S5        29.88F                  
WATERVILLE     MOCLDY    36  33  89 SW3       29.85F                  
BANGOR         MOCLDY    40  30  67 S7        29.87F                  
GREENVILLE       N/A     35  28  75 CALM      29.78F                  
MILLINOCKET    MOCLDY    34  29  82 CALM      29.84F                  
HOULTON        MOCLDY    33  28  81 S6        29.81S                  
PRESQUE ISLE   CLOUDY    33  28  81 S5        29.79F                  
FRENCHVILLE    MOCLDY    35  28  75 S8        29.72S                  
CARIBOU        CLOUDY    36  29  75 S6        29.76F                  
$$

NHZ002-005-008-009-011-012-014-171000-
NEW HAMPSHIRE
  
CITY           SKY/WX    TMP DP  RH WIND       PRES   REMARKS
PORTSMOUTH     MOCLDY    41  35  81 S8        29.91F                  
ROCHESTER      CLOUDY    37  36  96 CALM      29.90F                  
NASHUA         CLOUDY    40  38  93 CALM      29.93F                  
MANCHESTER     CLOUDY    40  36  86 S5        29.91F                  
CONCORD        CLOUDY    35  33  92 CALM      29.91F                  
LACONIA        CLOUDY    41  33  73 W5        29.89F                  
PLYMOUTH       CLOUDY    32  32  99 CALM      29.90F                  
BERLIN         CLOUDY    32  30  92 CALM      29.83F                  
WHITEFIELD     CLOUDY    33  31  92 CALM      29.84F                  
JAFFREY        FAIR      32  32 100 CALM      29.91F                  
KEENE          CLOUDY    32  31  96 CALM      29.93F                  
LEBANON        CLOUDY    40  35  83 S5        29.88F                  
MT WASHINGTON  FOG       23  23 100 W39         N/A  VSB 0   WCI   3  
$$

VTZ005-007-008-171000-
VERMONT
  
CITY           SKY/WX    TMP DP  RH WIND       PRES   REMARKS
ST JOHNSBURY     N/A     35  33  92 MISG      29.83F                  
MONTPELIER     LGT RAIN  44  35  70 SW9G18    29.86F                  
BURLINGTON     CLOUDY    47  33  58 S13       29.81F                  
$$

MAZ007-012-024-CTZ003-RIZ002-NYZ038-NYZ072-171000-
SOUTHERN NEW ENGLAND AND NY
  
CITY           SKY/WX    TMP DP  RH WIND       PRES   REMARKS
BOSTON         FAIR      44  36  73 SW10      29.95F                  
WORCESTER      FAIR      36  33  89 SW9       29.92F                  
NANTUCKET      FAIR      50  41  71 NW7       29.99F                  
PROVIDENCE     FAIR      41  36  82 W3        29.98F                  
HARTFORD       FAIR      38  36  92 S8        29.96S                  
ALBANY         FAIR      42  35  76 S5        29.93F                  
NEW YORK CITY  MOCLDY    53  34  48 W10G23    30.00F                  
$$

ANZ081-ANZ082-ANZ150-NHZ014-MEZ023>029-171000-
COASTAL MARINE OBSERVATIONS
  
STATION/POSITION TIME  TEMP    WIND        PRES    WAVE
                       AIR SEA DIR/SP/G            HT/PER
                 (UTC) (F)     (DEG/KT/KT) (MB)    (FT/S)
MOUNT DESERT ROC 0900   51     170/ 14/ 15 1013.1F
MATINICUS ROCK   0800   51     270/ 11/ 13 1012.4F
ISLE OF SHOALS   0800   48     240/ 16/ 17 1013.2F
JEFFREYS LEDGE   0806      57                N/A     3/ 4
$$

.............KEY..............
   WCI - WIND CHILL
   TC  - TEMPERATURE IN CELSIUS
   VSB - VISIBILITY IN MILES
   HX  - HEAT INDEX
   FAIR- INDICATES FEW OR NO CLOUDS BELOW 12,000 FT, WITH NO 
         SIGNIFICANT WEATHER AND/OR OBSTRUCTIONS TO VISIBILITY.